FW8327 Weather Reports


Display with metric or nautical units.
time (UTC)temp
F
wind
direction
speed
MPH
gust
MPH
rain 1hr
in
rain 24hr
in
rain mn
in
humidity
%
barometer
mb
20260905045021 77 159 0.0 0.0 0.00 0.00 0.00 99 1012.2
20260905044520 77 159 0.0 0.0 0.00 0.00 0.00 99 1012.3
20260905044015 77 160 0.0 0.0 0.00 0.00 0.00 99 1012.4
20260905043514 77 159 0.0 0.0 0.00 0.00 0.00 99 1012.5
20260905043009 77 159 0.0 0.0 0.00 0.00 0.00 99 1012.4
20260905042503 77 159 0.0 0.0 0.00 0.00 0.00 99 1012.5
20260905041958 77 159 0.0 0.0 0.00 0.00 0.00 99 1012.6
20260905041454 77 159 0.0 0.0 0.00 0.00 0.00 99 1012.7
20260905040949 77 159 0.0 0.0 0.00 0.00 0.00 99 1012.4
20260905040448 77 159 0.0 0.0 0.00 0.00 0.00 99 1012.5
20260905035947 77 159 0.0 0.0 0.00 0.00 0.00 99 1012.6
20260905035443 77 159 0.0 0.0 0.00 0.00 0.00 98 1012.4
20260905034940 77 159 0.0 0.0 0.00 0.00 0.00 97 1012.5
20260905034435 78 159 0.0 0.0 0.00 0.00 0.00 98 1012.4
20260905033934 78 159 0.0 0.0 0.00 0.00 0.00 98 1012.5
20260905033428 78 159 0.0 0.0 0.00 0.00 0.00 98 1012.7
20260905032928 78 159 0.0 0.0 0.00 0.00 0.00 97 1012.7
20260905032424 78 159 0.0 0.0 0.00 0.00 0.00 97 1012.7
20260905031919 78 159 0.0 0.0 0.00 0.00 0.00 97 1012.7
20260905031415 78 158 0.0 0.0 0.00 0.00 0.00 98 1012.7
20260905030909 78 158 0.0 0.0 0.00 0.00 0.00 97 1012.7
20260905030359 78 158 0.0 0.0 0.00 0.00 0.00 97 1012.6
20260905025858 79 158 0.0 0.0 0.00 0.00 0.00 96 1012.7
20260905025348 79 158 0.0 0.0 0.00 0.00 0.00 96 1012.5
20260905024844 79 158 0.0 0.0 0.00 0.00 0.00 96 1012.8
20260905024338 79 158 0.0 0.0 0.00 0.00 0.00 95 1012.4
20260905023834 79 158 0.0 0.0 0.00 0.00 0.00 96 1012.5
20260905023325 79 158 0.0 0.0 0.00 0.00 0.00 96 1012.5
20260905022823 79 158 0.0 0.0 0.00 0.00 0.00 96 1012.4
20260905022319 80 160 0.0 0.0 0.00 0.00 0.00 95 1012.5
20260905021818 80 159 0.0 0.0 0.00 0.00 0.00 95 1012.4
20260905021313 80 158 0.0 0.0 0.00 0.00 0.00 94 1012.5
20260905020808 81 158 0.0 0.0 0.00 0.00 0.00 93 1012.3
20260905020303 81 158 0.0 0.0 0.00 0.00 0.00 93 1012.5
20260905015802 81 158 0.0 0.0 0.00 0.00 0.00 94 1012.4
20260905015256 81 159 0.0 0.0 0.00 0.00 0.00 93 1012.4
20260905014755 81 159 0.0 0.0 0.00 0.00 0.00 93 1012.5
20260905014251 81 159 0.0 0.0 0.00 0.00 0.00 93 1012.3
20260905013747 81 159 0.0 0.0 0.00 0.00 0.00 93 1012.2
20260905013242 81 159 0.0 0.0 0.00 0.00 0.00 93 1012.5
20260905012738 81 159 0.0 0.0 0.00 0.00 0.00 93 1012.3
20260905012233 81 159 0.0 0.0 0.00 0.00 0.00 92 1012.3
20260905011730 81 159 0.0 0.0 0.00 0.00 0.00 93 1012.3
20260905011226 82 159 0.0 0.0 0.00 0.00 0.00 92 1012.3
20260905010726 82 159 0.0 0.0 0.00 0.00 0.00 91 1012.2
20260905010221 82 156 0.0 0.0 0.00 0.00 0.00 91 1012.3
20260905005718 82 170 0.0 0.0 0.00 0.00 0.00 91 1012.1
20260905005213 82 157 0.0 0.0 0.00 0.00 0.00 91 1012.0
20260905004707 82 154 0.0 0.0 0.00 0.00 0.00 90 1012.1
20260905004203 83 158 0.0 0.0 0.00 0.00 0.00 90 1012.0
20260905003658 83 158 0.0 0.0 0.00 0.00 0.00 89 1012.0
20260905003153 83 158 0.0 0.0 0.00 0.00 0.00 88 1012.0
20260905002648 84 145 0.0 0.0 0.00 0.00 0.00 87 1012.1
20260905002143 84 142 0.0 0.0 0.00 0.00 0.00 87 1012.0
20260905001638 84 152 0.0 0.0 0.00 0.00 0.00 87 1012.1
20260905001137 84 159 0.0 0.0 0.00 0.00 0.00 87 1011.9
20260905000632 85 117 0.0 0.0 0.00 0.00 0.00 86 1012.2
20260905000128 85 147 0.0 0.0 0.00 0.00 0.00 86 1012.1
20260904235623 86 134 0.0 0.0 0.00 0.00 0.00 85 1012.0
20260904235122 86 130 0.0 0.0 0.00 0.00 0.00 84 1012.1
20260904234617 86 137 0.0 0.0 0.00 0.00 0.00 83 1012.1
20260904234113 87 118 0.0 0.0 0.00 0.00 0.00 82 1012.1
20260904233609 87 139 0.0 0.0 0.00 0.00 0.00 81 1012.2
20260904233104 87 143 0.0 0.0 0.00 0.00 0.00 81 1012.1
20260904232601 87 141 0.0 0.0 0.00 0.00 0.00 81 1012.2
20260904232057 87 125 0.0 0.0 0.00 0.00 0.00 80 1012.1
20260904231553 88 147 0.0 0.0 0.00 0.00 0.00 79 1012.1
20260904231047 88 105 0.0 0.0 0.00 0.00 0.00 79 1012.2
20260904230546 88 122 0.0 0.0 0.00 0.00 0.00 79 1012.0
20260904230042 88 118 0.0 0.0 0.00 0.00 0.00 79 1012.2
20260904225539 88 132 0.0 0.0 0.00 0.00 0.00 80 1011.9
20260904225039 89 123 0.0 0.0 0.00 0.00 0.00 79 1012.0
20260904224535 90 126 0.0 0.0 0.00 0.00 0.00 76 1011.8
20260904224035 91 106 0.0 0.0 0.00 0.00 0.00 74 1011.8
20260904223533 90 96 0.0 0.0 0.00 0.00 0.00 73 1011.9
20260904223030 91 107 0.0 0.0 0.00 0.00 0.00 74 1012.0
20260904222525 91 157 0.0 0.0 0.00 0.00 0.00 75 1012.0
20260904222020 91 145 0.0 0.0 0.00 0.00 0.00 72 1011.8
20260904221514 91 143 0.0 0.0 0.00 0.00 0.00 74 1011.6
20260904221009 91 133 0.0 0.0 0.00 0.00 0.00 74 1011.6
20260904220509 90 149 0.0 0.0 0.00 0.00 0.00 74 1011.8
20260904220005 90 152 0.0 0.0 0.00 0.00 0.00 77 1011.8
20260904215459 89 151 0.0 0.0 0.00 0.00 0.00 76 1011.8
20260904214955 90 140 0.0 0.0 0.00 0.00 0.00 76 1011.8
20260904214450 90 140 0.0 0.0 0.00 0.00 0.00 76 1011.9
20260904213945 89 142 0.0 0.0 0.00 0.00 0.00 75 1011.9
20260904213438 90 135 0.0 0.0 0.00 0.00 0.00 76 1011.7
20260904212935 89 119 0.0 1.0 0.00 0.00 0.00 77 1011.9
20260904212434 91 102 0.0 0.0 0.00 0.00 0.00 75 1011.9
20260904211929 91 158 0.0 0.0 0.00 0.00 0.00 71 1011.7
20260904211429 90 148 0.0 0.0 0.00 0.00 0.00 73 1011.5
20260904210925 90 116 0.0 0.0 0.00 0.00 0.00 74 1011.5
20260904210424 89 152 0.0 0.0 0.00 0.00 0.00 72 1011.9
20260904205920 89 140 0.0 0.0 0.00 0.00 0.00 74 1011.7
20260904205415 90 138 0.0 0.0 0.00 0.00 0.00 73 1011.8
20260904204913 91 164 0.0 0.0 0.00 0.00 0.00 71 1011.9
20260904204408 90 118 0.0 0.0 0.00 0.00 0.00 72 1011.7
20260904203904 92 143 0.0 0.0 0.00 0.00 0.00 72 1012.2
20260904203400 92 144 0.0 0.0 0.00 0.00 0.00 68 1012.1
20260904202856 93 105 0.0 0.0 0.00 0.00 0.00 65 1012.1
20260904202352 92 114 0.0 0.0 0.00 0.00 0.00 68 1012.0
20260904201847 92 125 0.0 0.0 0.00 0.00 0.00 67 1012.2
20260904201347 93 142 0.0 0.0 0.00 0.00 0.00 67 1012.3
20260904200843 93 166 0.0 0.0 0.00 0.00 0.00 67 1012.5
20260904200341 92 146 0.0 0.0 0.00 0.00 0.00 68 1012.5
20260904195836 94 138 0.0 0.0 0.00 0.00 0.00 66 1012.3
20260904195334 92 62 0.0 0.0 0.00 0.00 0.00 70 1012.5
20260904194829 92 0 0.0 0.0 0.00 0.00 0.00 69 1012.8
20260904194328 91 24 0.0 0.0 0.00 0.00 0.00 69 1013.0
20260904193824 92 34 1.0 2.0 0.00 0.00 0.00 68 1013.1
20260904193319 91 359 1.0 1.0 0.00 0.00 0.00 68 1013.4
20260904192814 91 84 1.0 2.0 0.00 0.00 0.00 65 1013.0
20260904192309 90 339 1.0 2.0 0.00 0.00 0.00 70 1013.2
20260904191806 89 330 1.0 2.0 0.00 0.00 0.00 71 1013.2
20260904191303 90 341 0.0 2.0 0.00 0.00 0.00 71 1013.1
20260904190759 92 282 1.0 2.0 0.00 0.00 0.00 68 1013.6
20260904190254 93 282 0.0 0.0 0.00 0.00 0.00 69 1013.4
20260904185750 93 290 0.0 0.0 0.00 0.00 0.00 66 1013.8
20260904185245 93 284 0.0 0.0 0.00 0.00 0.00 69 1013.8
20260904184744 92 288 0.0 0.0 0.00 0.00 0.00 72 1014.0
20260904184240 93 274 0.0 0.0 0.00 0.00 0.00 68 1013.9
20260904183736 93 188 0.0 0.0 0.00 0.00 0.00 65 1013.9
20260904183230 93 216 0.0 0.0 0.00 0.00 0.00 64 1013.8
20260904182726 93 153 0.0 0.0 0.00 0.00 0.00 67 1013.9
20260904182221 93 256 1.0 2.0 0.00 0.00 0.00 62 1013.7
20260904181717 93 251 0.0 0.0 0.00 0.00 0.00 65 1014.0
20260904181216 92 254 0.0 0.0 0.00 0.00 0.00 65 1013.9
20260904180712 93 251 0.0 0.0 0.00 0.00 0.00 64 1014.1
20260904180207 92 205 0.0 0.0 0.00 0.00 0.00 65 1014.1
20260904175706 92 232 0.0 0.0 0.00 0.00 0.00 63 1014.1
20260904175205 92 188 0.0 0.0 0.00 0.00 0.00 64 1014.0
20260904174659 92 271 1.0 2.0 0.00 0.00 0.00 64 1014.0
20260904174155 92 218 0.0 0.0 0.00 0.00 0.00 63 1014.2
20260904173651 92 176 0.0 0.0 0.00 0.00 0.00 60 1014.2
20260904173146 91 176 0.0 0.0 0.00 0.00 0.00 69 1014.3
20260904172642 90 187 0.0 0.0 0.00 0.00 0.00 69 1014.3
20260904172141 90 268 0.0 0.0 0.00 0.00 0.00 65 1014.3
20260904171637 90 246 0.0 0.0 0.00 0.00 0.00 69 1014.3
20260904171132 88 235 0.0 0.0 0.00 0.00 0.00 72 1014.6
20260904170628 88 202 0.0 0.0 0.00 0.00 0.00 73 1014.6
20260904170123 88 194 0.0 0.0 0.00 0.00 0.00 73 1014.6
20260904165622 88 265 0.0 0.0 0.00 0.00 0.00 75 1014.7
20260904165116 87 255 0.0 0.0 0.00 0.00 0.00 76 1014.7
20260904164611 85 294 1.0 1.0 0.00 0.00 0.00 75 1015.0
20260904164107 85 299 1.0 2.0 0.00 0.00 0.00 75 1014.9
20260904163607 86 301 3.0 6.0 0.00 0.00 0.00 75 1014.9
20260904163102 87 278 3.0 4.0 0.00 0.00 0.00 75 1015.0
20260904162602 89 270 2.0 3.0 0.00 0.00 0.00 72 1015.0
20260904162058 90 273 2.0 3.0 0.00 0.00 0.00 69 1014.9
20260904161558 91 274 0.0 0.0 0.00 0.00 0.00 71 1014.8
20260904161047 91 226 2.0 2.0 0.00 0.00 0.00 69 1014.9
20260904160542 91 254 2.0 3.0 0.00 0.00 0.00 70 1014.8
20260904160038 90 207 0.0 0.0 0.00 0.00 0.00 71 1014.7
20260904155538 90 256 3.0 4.0 0.00 0.00 0.00 70 1014.6
20260904155038 90 256 1.0 2.0 0.00 0.00 0.00 71 1014.6
20260904154532 90 264 0.0 1.0 0.00 0.00 0.00 73 1014.5
20260904154026 90 227 0.0 0.0 0.00 0.00 0.00 71 1014.5
20260904153526 90 244 0.0 0.0 0.00 0.00 0.00 74 1014.4
20260904153017 89 266 0.0 1.0 0.00 0.00 0.00 72 1014.5
20260904152512 89 283 1.0 2.0 0.00 0.00 0.00 75 1014.7
20260904152007 88 194 0.0 0.0 0.00 0.00 0.00 75 1014.8
20260904151502 88 260 0.0 0.0 0.00 0.00 0.00 75 1014.7
20260904150957 88 249 0.0 0.0 0.00 0.00 0.00 74 1014.7
20260904150452 87 266 0.0 0.0 0.00 0.00 0.00 75 1014.7
20260904145950 87 231 1.0 1.0 0.00 0.00 0.00 76 1014.7
20260904145446 87 259 2.0 2.0 0.00 0.00 0.00 76 1015.0
20260904144941 87 179 0.0 0.0 0.00 0.00 0.00 75 1014.9
20260904144437 87 253 0.0 0.0 0.00 0.00 0.00 78 1014.7
20260904143933 86 240 0.0 0.0 0.00 0.00 0.00 78 1014.9
20260904143429 86 266 1.0 2.0 0.00 0.00 0.00 77 1014.8
20260904142925 86 208 0.0 1.0 0.00 0.00 0.00 79 1014.7
20260904142421 85 241 1.0 2.0 0.00 0.00 0.00 78 1014.7
20260904141920 85 271 0.0 1.0 0.00 0.00 0.00 79 1014.6
20260904141416 85 236 0.0 0.0 0.00 0.00 0.00 79 1014.6
20260904140912 85 248 1.0 1.0 0.00 0.00 0.00 79 1014.6
20260904140412 85 218 0.0 0.0 0.00 0.00 0.00 79 1014.5
20260904135911 85 222 0.0 0.0 0.00 0.00 0.00 79 1014.5
20260904135411 85 244 0.0 1.0 0.00 0.00 0.00 78 1014.5
20260904134908 84 235 0.0 0.0 0.00 0.00 0.00 80 1014.6
20260904134407 84 152 0.0 0.0 0.00 0.00 0.00 80 1014.4
20260904133902 84 163 0.0 0.0 0.00 0.00 0.00 79 1014.5
20260904133357 84 159 0.0 0.0 0.00 0.00 0.00 80 1014.4
20260904132852 84 192 0.0 0.0 0.00 0.00 0.00 80 1014.5
20260904132348 83 177 0.0 0.0 0.00 0.00 0.00 82 1014.4
20260904131847 83 171 0.0 0.0 0.00 0.00 0.00 81 1014.4
20260904131343 83 179 0.0 0.0 0.00 0.00 0.00 81 1014.5
20260904130838 82 196 0.0 0.0 0.00 0.00 0.00 83 1014.6
20260904130337 82 199 0.0 0.0 0.00 0.00 0.00 83 1014.3
20260904125832 81 174 0.0 0.0 0.00 0.00 0.00 84 1014.3
20260904125329 81 159 0.0 0.0 0.00 0.00 0.00 85 1014.3
20260904124827 80 167 0.0 0.0 0.00 0.00 0.00 86 1014.4
20260904124324 79 186 0.0 0.0 0.00 0.00 0.00 87 1014.5
20260904123825 79 175 0.0 0.0 0.00 0.00 0.00 87 1014.3
20260904123320 79 156 0.0 0.0 0.00 0.00 0.00 87 1014.4
20260904122815 78 169 0.0 0.0 0.00 0.00 0.00 89 1014.4
20260904122315 78 159 0.0 0.0 0.00 0.00 0.00 89 1014.3
20260904121810 77 167 0.0 0.0 0.00 0.00 0.00 90 1014.1
20260904121306 77 171 0.0 0.0 0.00 0.00 0.00 91 1014.1
20260904120803 76 153 0.0 0.0 0.00 0.00 0.00 92 1014.2
20260904120257 76 159 0.0 0.0 0.00 0.00 0.00 92 1014.1
20260904115753 75 157 0.0 0.0 0.00 0.00 0.00 93 1014.1
20260904115248 75 171 0.0 0.0 0.00 0.00 0.00 94 1014.0
20260904114743 75 168 0.0 0.0 0.00 0.00 0.00 95 1013.8
20260904114242 74 169 0.0 0.0 0.00 0.00 0.00 96 1013.9
20260904113737 74 166 0.0 0.0 0.00 0.00 0.00 96 1013.6
20260904113236 74 162 0.0 0.0 0.00 0.00 0.00 96 1013.5
20260904112732 74 161 0.0 0.0 0.00 0.00 0.00 96 1013.4
20260904112227 74 161 0.0 0.0 0.00 0.00 0.00 96 1013.5
20260904111723 74 161 0.0 0.0 0.00 0.00 0.00 97 1013.4
20260904111218 74 161 0.0 0.0 0.00 0.00 0.00 96 1013.2
20260904110714 74 161 0.0 0.0 0.00 0.00 0.00 96 1013.2
20260904110213 74 159 0.0 0.0 0.00 0.00 0.00 96 1013.1
20260904105708 74 161 0.0 0.0 0.00 0.00 0.00 96 1013.1
20260904105203 74 161 0.0 0.0 0.00 0.00 0.00 95 1013.1
20260904104658 74 161 0.0 0.0 0.00 0.00 0.00 95 1013.2
20260904104154 74 161 0.0 0.0 0.00 0.00 0.00 95 1013.4
20260904103650 74 161 0.0 0.0 0.00 0.00 0.00 95 1013.0
20260904103145 74 161 0.0 0.0 0.00 0.00 0.00 94 1013.4
20260904102641 75 161 0.0 0.0 0.00 0.00 0.00 94 1013.2
20260904102136 75 161 0.0 0.0 0.00 0.00 0.00 94 1013.2
20260904101633 75 161 0.0 0.0 0.00 0.00 0.00 93 1013.1
20260904101128 75 161 0.0 0.0 0.00 0.00 0.00 93 1013.1
20260904100624 75 161 0.0 0.0 0.00 0.00 0.00 93 1013.1
20260904100119 75 161 0.0 0.0 0.00 0.00 0.00 92 1013.1
20260904095614 75 161 0.0 0.0 0.00 0.00 0.00 92 1013.0
20260904095108 75 161 0.0 0.0 0.00 0.00 0.00 91 1013.0
20260904094609 75 161 0.0 0.0 0.00 0.00 0.00 91 1013.1
20260904094103 75 161 0.0 0.0 0.00 0.00 0.00 91 1013.2
20260904093600 75 161 0.0 0.0 0.00 0.00 0.00 91 1013.2
20260904093055 75 161 0.0 0.0 0.00 0.00 0.00 90 1013.1
20260904092551 75 161 0.0 0.0 0.00 0.00 0.00 90 1012.9
20260904092047 75 162 0.0 0.0 0.00 0.00 0.00 90 1013.0
20260904091543 75 162 0.0 0.0 0.00 0.00 0.00 90 1012.8
20260904091042 75 162 0.0 0.0 0.00 0.00 0.00 89 1013.0
20260904090538 76 162 0.0 0.0 0.00 0.00 0.00 89 1012.8
20260904090033 76 162 0.0 0.0 0.00 0.00 0.00 88 1012.9
20260904085528 76 162 0.0 0.0 0.00 0.00 0.00 88 1012.7
20260904085028 76 162 0.0 0.0 0.00 0.00 0.00 87 1012.7
20260904084524 76 162 0.0 0.0 0.00 0.00 0.00 87 1012.7
20260904084020 76 162 0.0 0.0 0.00 0.00 0.00 87 1012.8
20260904083516 77 162 0.0 0.0 0.00 0.00 0.00 85 1012.7
20260904083011 78 162 0.0 0.0 0.00 0.00 0.00 83 1012.7
20260904082506 78 158 0.0 0.0 0.00 0.00 0.00 82 1012.7
20260904082001 77 158 0.0 0.0 0.00 0.00 0.00 82 1012.8
20260904081456 77 159 0.0 0.0 0.00 0.00 0.00 84 1012.5
20260904080952 76 159 0.0 0.0 0.00 0.00 0.00 84 1012.7
20260904080447 77 159 0.0 0.0 0.00 0.00 0.00 84 1012.8
20260904075943 77 159 0.0 0.0 0.00 0.00 0.00 84 1012.7
20260904075439 77 159 0.0 0.0 0.00 0.00 0.00 83 1012.9
20260904074938 78 159 0.0 0.0 0.00 0.00 0.00 83 1012.9
20260904074433 78 176 0.0 0.0 0.00 0.00 0.00 83 1013.1
20260904073928 77 173 0.0 0.0 0.00 0.00 0.00 85 1013.6
20260904073424 75 164 0.0 0.0 0.00 0.00 0.00 93 1013.1
20260904072919 75 151 0.0 0.0 0.00 0.00 0.00 97 1013.4
20260904072414 75 157 0.0 0.0 0.00 0.00 0.00 98 1013.7
20260904071910 74 162 0.0 0.0 0.00 0.00 0.00 98 1013.8
20260904071405 74 162 0.0 0.0 0.00 0.00 0.00 98 1013.6
20260904070900 74 162 0.0 0.0 0.00 0.00 0.00 98 1013.7
20260904070359 75 162 0.0 0.0 0.00 0.00 0.00 97 1013.6
20260904065853 75 162 0.0 0.0 0.00 0.00 0.00 97 1013.7
20260904065349 75 162 0.0 0.0 0.00 0.00 0.00 97 1013.6
20260904064844 75 162 0.0 0.0 0.00 0.00 0.00 97 1013.7
20260904064340 75 161 0.0 0.0 0.00 0.00 0.00 97 1013.8
20260904063835 75 164 0.0 0.0 0.00 0.00 0.00 97 1013.8
20260904063332 75 164 0.0 0.0 0.00 0.00 0.00 97 1013.8
20260904062832 75 164 0.0 0.0 0.00 0.00 0.00 97 1013.9
20260904062328 75 164 0.0 0.0 0.00 0.00 0.00 97 1013.8
20260904061823 75 164 0.0 0.0 0.00 0.00 0.00 97 1014.0
20260904061320 75 164 0.0 0.0 0.00 0.00 0.00 97 1013.9
20260904060816 75 164 0.0 0.0 0.00 0.00 0.00 97 1014.0
20260904060312 75 164 0.0 0.0 0.00 0.00 0.00 97 1014.2
20260904055806 75 164 0.0 0.0 0.00 0.00 0.00 97 1013.8
20260904055301 75 164 0.0 0.0 0.00 0.00 0.00 97 1014.0
20260904054757 75 164 0.0 0.0 0.00 0.00 0.00 97 1014.2
20260904054253 75 164 0.0 0.0 0.00 0.00 0.00 96 1014.2
20260904053748 75 164 0.0 0.0 0.00 0.00 0.00 96 1014.3
20260904053248 76 164 0.0 0.0 0.00 0.00 0.00 96 1014.1
20260904052744 76 164 0.0 0.0 0.00 0.00 0.00 96 1014.0
20260904052240 76 164 0.0 0.0 0.00 0.00 0.00 96 1014.0
20260904051736 76 164 0.0 0.0 0.00 0.00 0.00 95 1014.1
20260904051231 76 164 0.0 0.0 0.00 0.00 0.00 95 1014.1
20260904050726 76 164 0.0 0.0 0.00 0.00 0.00 95 1014.1
20260904050222 76 164 0.0 0.0 0.00 0.00 0.00 95 1014.1
20260904045717 76 164 0.0 0.0 0.00 0.00 0.00 95 1014.3